User: anonymous   Login
Location: Unspecified
(0.0000°N, 0.0000°E)
Time: 13:09:22
(UTC+00:00)
Language:

SRMSAT - Orbit

View from above orbital plane
View from above orbital plane
View from above satellite
View from above satellite

Ground track
Ground track

The orbit data is extracted from the following two-line orbital elements,

1 37841U 11058D   19235.72850090 +.00000301 +00000-0 +19966-4 0  9998
2 37841 019.9733 352.4645 0011718 202.0236 307.6348 14.10636788405935
Epoch (UTC): 23 August 2019 17:29:02
Eccentricity: 0.0011718
inclination: 19.9733°
perigee height: 849 km
apogee height: 865 km
right ascension of ascending node: 352.4645°
argument of perigee: 202.0236°
revolutions per day: 14.10636788
mean anomaly at epoch: 307.6348°
orbit number at epoch: 40593

The dashed part of the orbit path shows where the satellite is in the earth's shadow,  

DLR